FlightSource - Aviation Photo Database

World Wide Airport Lookup


Search by ICAO
Or
Search by City

FlightSource.ca - Aviation Photo Database - Rexburg Madison County Airport Information
Airport Identification
Name: Rexburg Madison County Airport
ICAO: KRXE
IATA:
Airport Location
City: Rexburg
Region: ID
Country: United States
Continent: North America
Latitude: 43.8339
Longitude: -111.805
Airport Information
Type: Small Airport
Elevation: 4858 Feet ASL
Flight Status: KRXE
More Info: KRXE
Airport Weather    
Metar: KRXE 120353Z AUTO 05004KT 10SM CLR M07/M10 A3056 RMK AO2 SLP414 T10721100
TAF:


Advertisement